When you browse on this site, cookies collect data to enhance your experience and personalize the content and advertising you see.
Visit our Privacy Policy to learn more. By continuing to use the site, you agree to this use of cookies and data.
  • In Denmark
  • List of Countries
  • For 7 days
  • Water Temperature
  • Satellite Maps
  • Weather Map
  • Weather Widgets
  • user-avatar
    Login

    Hourly Weather Akaba

    Today, 22 February, Friday

    Time Temperature Precipitation Wind Pressure Humidity
    00:00 +14°C° 0 mm 2 mps 752 mmHg 58%
    01:00 +14°C° 0 mm 2 mps 752 mmHg 61%
    02:00 +13°C° 0 mm 2 mps 752 mmHg 63%
    03:00 +13°C° 0 mm 2 mps 752 mmHg 64%
    04:00 +13°C° 0 mm 1 mps 752 mmHg 65%
    05:00 +12°C° 0 mm 1 mps 752 mmHg 66%
    06:00 +13°C° 0 mm 1 mps 752 mmHg 62%
    07:00 +13°C° 0 mm 1 mps 752 mmHg 59%
    08:00 +14°C° 0 mm 1 mps 752 mmHg 55%
    09:00 +15°C° 0 mm 2 mps 751 mmHg 51%
    10:00 +16°C° 0 mm 2 mps 751 mmHg 46%
    11:00 +17°C° 0 mm 2 mps 751 mmHg 41%
    12:00 +18°C° 0 mm 2 mps 750 mmHg 38%
    13:00 +18°C° 0 mm 2 mps 750 mmHg 36%
    14:00 +19°C° 0 mm 2 mps 749 mmHg 33%
    15:00 +19°C° 0 mm 2 mps 749 mmHg 34%
    16:00 +19°C° 0 mm 3 mps 749 mmHg 34%
    17:00 +19°C° 0 mm 3 mps 749 mmHg 34%
    18:00 +18°C° 0 mm 2 mps 750 mmHg 37%
    19:00 +18°C° 0 mm 2 mps 750 mmHg 40%
    20:00 +17°C° 0 mm 2 mps 750 mmHg 43%
    21:00 +16°C° 0 mm 2 mps 751 mmHg 45%
    22:00 +16°C° 0 mm 2 mps 751 mmHg 47%
    23:00 +15°C° 0 mm 1 mps 751 mmHg 49%

    Tomorrow, 23 February, Saturday

    Time Temperature Precipitation Wind Pressure Humidity
    00:00 +15°C° 0 mm 1 mps 751 mmHg 51%
    01:00 +14°C° 0 mm 1 mps 751 mmHg 53%
    02:00 +14°C° 0 mm 1 mps 751 mmHg 54%
    03:00 +13°C° 0 mm 1 mps 751 mmHg 55%
    04:00 +13°C° 0 mm 1 mps 751 mmHg 57%
    05:00 +13°C° 0 mm 1 mps 751 mmHg 58%
    06:00 +13°C° 0 mm 1 mps 751 mmHg 54%
    07:00 +14°C° 0 mm 1 mps 751 mmHg 50%
    08:00 +15°C° 0 mm 1 mps 752 mmHg 46%
    09:00 +16°C° 0 mm 1 mps 752 mmHg 40%
    10:00 +18°C° 0 mm 1 mps 752 mmHg 35%
    11:00 +19°C° 0 mm 1 mps 752 mmHg 30%
    12:00 +20°C° 0 mm 1 mps 751 mmHg 28%
    13:00 +21°C° 0 mm 1 mps 751 mmHg 26%
    14:00 +21°C° 0 mm 1 mps 750 mmHg 23%
    15:00 +21°C° 0 mm 1 mps 750 mmHg 23%
    16:00 +21°C° 0 mm 1 mps 750 mmHg 22%
    17:00 +21°C° 0 mm 1 mps 750 mmHg 21%
    18:00 +21°C° 0 mm 1 mps 751 mmHg 22%
    19:00 +20°C° 0 mm 1 mps 751 mmHg 23%
    20:00 +19°C° 0 mm 1 mps 751 mmHg 24%
    21:00 +19°C° 0 mm 1 mps 751 mmHg 24%
    22:00 +18°C° 0 mm 1 mps 752 mmHg 24%
    23:00 +16°C° 0 mm 1 mps 752 mmHg 24%

    Day after tomorrow, 24 February, Sunday

    Time Temperature Precipitation Wind Pressure Humidity
    00:00 +16°C° 0 mm 1 mps 752 mmHg 24%
    01:00 +16°C° 0 mm 2 mps 751 mmHg 24%
    02:00 +15°C° 0 mm 2 mps 751 mmHg 24%
    03:00 +15°C° 0 mm 2 mps 751 mmHg 24%
    04:00 +15°C° 0 mm 2 mps 751 mmHg 25%
    05:00 +15°C° 0 mm 2 mps 751 mmHg 25%
    06:00 +16°C° 0 mm 2 mps 751 mmHg 24%
    07:00 +17°C° 0 mm 2 mps 751 mmHg 23%
    08:00 +18°C° 0 mm 2 mps 752 mmHg 22%
    09:00 +19°C° 0 mm 2 mps 752 mmHg 21%
    10:00 +20°C° 0 mm 2 mps 751 mmHg 20%
    11:00 +23°C° 0 mm 1 mps 751 mmHg 19%
    12:00 +24°C° 0 mm 1 mps 751 mmHg 18%
    13:00 +24°C° 0 mm 1 mps 750 mmHg 18%
    14:00 +25°C° 0 mm 1 mps 749 mmHg 17%
    15:00 +25°C° 0 mm 1 mps 749 mmHg 17%
    16:00 +25°C° 0 mm 1 mps 749 mmHg 16%
    17:00 +25°C° 0 mm 2 mps 749 mmHg 16%
    18:00 +24°C° 0 mm 2 mps 749 mmHg 17%
    19:00 +24°C° 0 mm 2 mps 750 mmHg 19%
    20:00 +23°C° 0 mm 2 mps 750 mmHg 20%
    21:00 +23°C° 0 mm 2 mps 750 mmHg 21%
    22:00 +21°C° 0 mm 2 mps 749 mmHg 22%
    23:00 +20°C° 0 mm 2 mps 749 mmHg 23%

    25 February, Monday

    Time Temperature Precipitation Wind Pressure Humidity
    00:00 +20°C° 0 mm 2 mps 749 mmHg 23%
    01:00 +20°C° 0 mm 3 mps 748 mmHg 22%
    02:00 +20°C° 0 mm 3 mps 748 mmHg 22%
    03:00 +20°C° 0 mm 3 mps 748 mmHg 23%
    04:00 +20°C° 0 mm 3 mps 747 mmHg 24%
    05:00 +20°C° 0 mm 3 mps 747 mmHg 25%
    06:00 +21°C° 0 mm 3 mps 747 mmHg 25%
    07:00 +21°C° 0 mm 3 mps 747 mmHg 25%
    08:00 +22°C° 0 mm 3 mps 747 mmHg 26%
    09:00 +24°C° 0 mm 3 mps 746 mmHg 23%
    10:00 +26°C° 0 mm 3 mps 746 mmHg 21%
    11:00 +28°C° 0 mm 3 mps 746 mmHg 18%
    12:00 +28°C° 0 mm 4 mps 745 mmHg 20%
    13:00 +29°C° 0 mm 5 mps 744 mmHg 21%
    14:00 +30°C° 0 mm 6 mps 743 mmHg 22%
    15:00 +29°C° 0 mm 6 mps 743 mmHg 32%
    16:00 +28°C° 0 mm 6 mps 743 mmHg 41%
    17:00 +27°C° 0 mm 6 mps 743 mmHg 51%
    18:00 +26°C° 0 mm 4 mps 743 mmHg 56%
    19:00 +25°C° 0 mm 3 mps 744 mmHg 61%
    20:00 +24°C° 0 mm 2 mps 745 mmHg 66%
    21:00 +24°C° 0 mm 1 mps 745 mmHg 68%
    22:00 +23°C° 0 mm 1 mps 745 mmHg 70%
    23:00 +23°C° 0 mm 1 mps 745 mmHg 72%

    26 February, Tuesday

    Time Temperature Precipitation Wind Pressure Humidity
    00:00 +23°C° 0 mm 1 mps 745 mmHg 71%
    01:00 +21°C° 0 mm 2 mps 745 mmHg 70%
    02:00 +21°C° 0 mm 2 mps 745 mmHg 68%
    03:00 +21°C° 0 mm 3 mps 746 mmHg 58%
    04:00 +20°C° 0 mm 3 mps 746 mmHg 48%
    05:00 +19°C° 0 mm 4 mps 746 mmHg 38%
    06:00 +19°C° 0 mm 4 mps 746 mmHg 37%
    07:00 +19°C° 0 mm 3 mps 747 mmHg 37%
    08:00 +18°C° 0 mm 3 mps 747 mmHg 36%
    09:00 +19°C° 0 mm 2 mps 747 mmHg 33%
    10:00 +21°C° 0 mm 2 mps 746 mmHg 30%
    11:00 +23°C° 0 mm 1 mps 746 mmHg 26%
    12:00 +24°C° 0 mm 3 mps 746 mmHg 22%
    13:00 +25°C° 0 mm 5 mps 745 mmHg 18%
    14:00 +27°C° 0 mm 7 mps 744 mmHg 14%
    15:00 +24°C° 0 mm 8 mps 744 mmHg 15%
    16:00 +23°C° 0 mm 9 mps 745 mmHg 17%
    17:00 +22°C° 0 mm 10 mps 745 mmHg 18%
    18:00 +21°C° 0 mm 9 mps 745 mmHg 22%
    19:00 +20°C° 0 mm 7 mps 746 mmHg 25%
    20:00 +19°C° 0 mm 5 mps 746 mmHg 28%
    21:00 +19°C° 0 mm 4 mps 746 mmHg 30%
    22:00 +18°C° 0 mm 4 mps 747 mmHg 32%
    23:00 +17°C° 0 mm 3 mps 747 mmHg 33%

    27 February, Wednesday

    Time Temperature Precipitation Wind Pressure Humidity
    00:00 +16°C° 0 mm 2 mps 747 mmHg 34%
    01:00 +16°C° 0 mm 2 mps 746 mmHg 35%
    02:00 +15°C° 0 mm 1 mps 746 mmHg 35%
    03:00 +14°C° 0 mm 1 mps 746 mmHg 37%
    04:00 +14°C° 0 mm 1 mps 746 mmHg 39%
    05:00 +13°C° 0 mm 1 mps 747 mmHg 41%
    06:00 +14°C° 0 mm 2 mps 747 mmHg 40%
    07:00 +15°C° 0 mm 2 mps 747 mmHg 38%
    08:00 +15°C° 0 mm 2 mps 747 mmHg 36%
    09:00 +16°C° 0 mm 3 mps 747 mmHg 37%
    10:00 +18°C° 0 mm 3 mps 746 mmHg 37%
    11:00 +19°C° 0 mm 4 mps 746 mmHg 38%
    12:00 +20°C° 0 mm 5 mps 746 mmHg 36%
    13:00 +21°C° 0 mm 6 mps 745 mmHg 34%
    14:00 +21°C° 0 mm 8 mps 744 mmHg 31%
    15:00 +20°C° 0 mm 8 mps 745 mmHg 36%
    16:00 +18°C° 0 mm 8 mps 745 mmHg 42%
    17:00 +17°C° 0 mm 8 mps 745 mmHg 47%
    18:00 +17°C° 0 mm 7 mps 746 mmHg 49%
    19:00 +16°C° 0 mm 6 mps 746 mmHg 52%
    20:00 +16°C° 0 mm 5 mps 747 mmHg 55%
    21:00 +16°C° 0.1 mm 6 mps 747 mmHg 58%
    22:00 +15°C° 0.1 mm 6 mps 747 mmHg 61%
    23:00 +15°C° 0.1 mm 6 mps 747 mmHg 64%
    Show more